Bennington, VT

6:26 AM EDT on June 25, 2017 (GMT -0400)
Morse State

Weather History for KDDH - April, 2014

Change the Weather History Date:

Sunday, April 6, 2014

  Actual Average Record
Temperature  
Mean Temperature 41 °F 42 °F  
Max Temperature 52 °F 53 °F 71 °F (2005)
Min Temperature 29 °F 31 °F 12 °F (2016)
Degree Days  
Heating Degree Days 24 23  
Month to date heating degree days 145 146  
Since 1 July heating degree days 6551 6381  
Cooling Degree Days 0 0  
Month to date cooling degree days 0 0  
Year to date cooling degree days 0 0  
Moisture  
Dew Point 21 °F    
Average Humidity 54    
Maximum Humidity 78    
Minimum Humidity 30    
Precipitation  
Precipitation 0.00 in 0.12 in 0.25 in (2009)
Month to date precipitation 0.21 0.76  
Year to date precipitation 8.22 8.90  
Sea Level Pressure  
Sea Level Pressure 30.13 in    
Wind  
Wind Speed 6 mph (West)    
Max Wind Speed 15 mph    
Max Gust Speed 22 mph    
Visibility 10 miles    
Events      
T = Trace of Precipitation, MM = Missing Value Source: NWS Daily Summary

Daily Weather History Graph

Daily Weather History Graph

Search for Another Location

Airport or City:

Trip Planner

Search our weather history database for the weather conditions in past years. The results will help you decide how hot, cold, wet, or windy it might be!

Date:

Astronomy

Apr. 06, 2014 Rise Set
Actual Time 6:26 AM EDT 7:24 PM EDT
Civil Twilight 5:57 AM EDT 7:53 PM EDT
Nautical Twilight 5:23 AM EDT 8:28 PM EDT
Astronomical Twilight 4:47 AM EDT 9:04 PM EDT
Moon 11:20 AM EDT (4/6) 1:23 AM EDT (4/6)
Length of Visible Light 13h 56m
Length of Day
12h 58m
Waxing Crescent, 43% of the Moon is Illuminated
Apr 6
Waxing Crescent
Apr 7
First Quarter
Apr 15
Full
Apr 22
Last Quarter
Apr 29
New

Hourly Weather History & Observations

Time (EDT) Temp. Windchill Dew Point Humidity Pressure Visibility Wind Dir Wind Speed Gust Speed Precip Events Conditions
12:54 AM 34.0 °F 25.0 °F 21.0 °F 59% 30.02 in 10.0 mi West 12.7 mph 19.6 mph N/A   Overcast
1:54 AM 34.0 °F 25.5 °F 21.9 °F 61% 30.03 in 10.0 mi West 11.5 mph - N/A   Overcast
2:54 AM 33.1 °F 25.5 °F 21.9 °F 64% 30.04 in 10.0 mi WNW 9.2 mph 17.3 mph N/A   Overcast
3:54 AM 32.0 °F 23.6 °F 19.9 °F 61% 30.06 in 10.0 mi WNW 10.4 mph 17.3 mph N/A   Overcast
4:54 AM 32.0 °F 25.6 °F 19.9 °F 61% 30.08 in 10.0 mi WNW 6.9 mph - N/A   Overcast
5:54 AM 30.0 °F 21.1 °F 19.0 °F 64% 30.10 in 10.0 mi West 10.4 mph - N/A   Scattered Clouds
6:54 AM 28.9 °F 21.1 °F 19.0 °F 67% 30.13 in 10.0 mi West 8.1 mph - N/A   Clear
7:54 AM 30.9 °F 22.8 °F 19.0 °F 61% 30.15 in 10.0 mi West 9.2 mph - N/A   Clear
8:54 AM 34.0 °F 27.2 °F 19.0 °F 54% 30.16 in 10.0 mi WNW 8.1 mph - N/A   Clear
9:54 AM 36.0 °F 29.6 °F 19.9 °F 52% 30.17 in 10.0 mi WNW 8.1 mph - N/A   Clear
10:54 AM 37.0 °F 32.4 °F 19.0 °F 48% 30.17 in 10.0 mi West 5.8 mph - N/A   Clear
11:54 AM 41.0 °F 35.8 °F 19.9 °F 43% 30.16 in 10.0 mi West 8.1 mph - N/A   Clear
12:54 PM 44.1 °F 38.1 °F 19.9 °F 38% 30.15 in 10.0 mi WNW 11.5 mph - N/A   Clear
1:54 PM 46.9 °F - 21.9 °F 37% 30.15 in 10.0 mi West 9.2 mph - N/A   Clear
2:54 PM 48.0 °F - 21.0 °F 34% 30.14 in 10.0 mi Variable 4.6 mph - N/A   Clear
3:54 PM 48.9 °F - 21.0 °F 33% 30.14 in 10.0 mi Variable 5.8 mph - N/A   Clear
4:54 PM 51.1 °F - 21.9 °F 32% 30.13 in 10.0 mi SW 6.9 mph - N/A   Clear
5:54 PM 51.1 °F - 21.0 °F 31% 30.12 in 10.0 mi WSW 4.6 mph - N/A   Clear
6:54 PM 48.9 °F - 21.9 °F 35% 30.13 in 10.0 mi WSW 5.8 mph - N/A   Clear
7:54 PM 43.0 °F - 24.1 °F 47% 30.14 in 10.0 mi Calm Calm - N/A   Clear
8:54 PM 37.0 °F 34.5 °F 25.0 °F 62% 30.18 in 10.0 mi SSE 3.5 mph - N/A   Clear
9:54 PM 35.1 °F 31.0 °F 24.1 °F 64% 30.19 in 10.0 mi South 4.6 mph - N/A   Clear
10:54 PM 30.0 °F - 23.0 °F 75% 30.21 in 10.0 mi Calm Calm - N/A   Clear
11:54 PM 30.9 °F - 24.1 °F 76% 30.20 in 10.0 mi Calm Calm - N/A   Clear